| time (UTC) | temp F | wind direction | speed MPH | gust MPH | rain 1hr in | rain 24hr in | rain mn in | humidity % | barometer mb |
| 20260905230624 | 91 | 63 | 4.0 | 6.0 | 0.00 | 0.00 | 0.00 | 66 | 1010.2 |
| 20260905230034 | 91 | 54 | 2.0 | 5.0 | 0.00 | 0.00 | 0.00 | 66 | 1010.2 |
| 20260905225539 | 91 | 63 | 3.0 | 7.0 | 0.00 | 0.00 | 0.00 | 66 | 1010.2 |
| 20260905224602 | 90 | 41 | 3.0 | 9.0 | 0.00 | 0.00 | 0.00 | 67 | 1010.1 |
| 20260905224111 | 90 | 63 | 4.0 | 10.0 | 0.00 | 0.00 | 0.00 | 67 | 1010.1 |
| 20260905223131 | 90 | 30 | 5.0 | 10.0 | 0.00 | 0.00 | 0.00 | 65 | 1010.2 |
| 20260905222621 | 91 | 34 | 5.0 | 11.0 | 0.00 | 0.00 | 0.00 | 64 | 1010.2 |
| 20260905222128 | 91 | 41 | 6.0 | 11.0 | 0.00 | 0.00 | 0.00 | 64 | 1010.2 |
| 20260905221553 | 91 | 13 | 6.0 | 11.0 | 0.00 | 0.00 | 0.00 | 64 | 1010.1 |
| 20260905221105 | 91 | 30 | 5.0 | 10.0 | 0.00 | 0.00 | 0.00 | 63 | 1010.0 |
| 20260905220603 | 92 | 14 | 7.0 | 12.0 | 0.00 | 0.00 | 0.00 | 61 | 1010.0 |
| 20260905220034 | 92 | 22 | 5.0 | 12.0 | 0.00 | 0.00 | 0.00 | 59 | 1010.0 |
| 20260905215538 | 94 | 33 | 6.0 | 11.0 | 0.00 | 0.00 | 0.00 | 55 | 1010.0 |
| 20260905214608 | 95 | 142 | 2.0 | 8.0 | 0.00 | 0.00 | 0.00 | 53 | 1010.2 |
| 20260905214112 | 95 | 144 | 5.0 | 8.0 | 0.00 | 0.00 | 0.00 | 52 | 1010.2 |
| 20260905213629 | 95 | 150 | 3.0 | 6.0 | 0.00 | 0.00 | 0.00 | 53 | 1010.2 |
| 20260905213056 | 95 | 86 | 3.0 | 9.0 | 0.00 | 0.00 | 0.00 | 54 | 1010.2 |
| 20260905212539 | 95 | 69 | 4.0 | 9.0 | 0.00 | 0.00 | 0.00 | 54 | 1010.2 |
| 20260905212151 | 95 | 120 | 4.0 | 9.0 | 0.00 | 0.00 | 0.00 | 54 | 1010.2 |
| 20260905211550 | 95 | 94 | 5.0 | 9.0 | 0.00 | 0.00 | 0.00 | 54 | 1010.2 |
| 20260905211101 | 95 | 71 | 4.0 | 8.0 | 0.00 | 0.00 | 0.00 | 56 | 1010.2 |
| 20260905210613 | 95 | 120 | 3.0 | 8.0 | 0.00 | 0.00 | 0.00 | 55 | 1010.2 |
| 20260905210034 | 95 | 98 | 4.0 | 15.0 | 0.00 | 0.00 | 0.00 | 56 | 1010.3 |
| 20260905205546 | 95 | 149 | 7.0 | 15.0 | 0.00 | 0.00 | 0.00 | 57 | 1010.3 |
| 20260905204613 | 94 | 84 | 3.0 | 9.0 | 0.00 | 0.00 | 0.00 | 57 | 1010.4 |
| 20260905204121 | 94 | 69 | 1.0 | 9.0 | 0.00 | 0.00 | 0.00 | 58 | 1010.4 |
| 20260905203100 | 94 | 88 | 3.0 | 7.0 | 0.00 | 0.00 | 0.00 | 57 | 1010.7 |
| 20260905202543 | 94 | 138 | 2.0 | 9.0 | 0.00 | 0.00 | 0.00 | 58 | 1010.8 |
| 20260905201605 | 94 | 148 | 5.0 | 9.0 | 0.00 | 0.00 | 0.00 | 57 | 1010.9 |
| 20260905201118 | 94 | 169 | 4.0 | 8.0 | 0.00 | 0.00 | 0.00 | 57 | 1011.0 |
| 20260905200629 | 93 | 200 | 3.0 | 10.0 | 0.00 | 0.00 | 0.00 | 58 | 1011.0 |
| 20260905200049 | 93 | 137 | 5.0 | 11.0 | 0.00 | 0.00 | 0.00 | 59 | 1011.2 |
| 20260905195604 | 93 | 138 | 1.0 | 7.0 | 0.00 | 0.00 | 0.00 | 59 | 1011.2 |
| 20260905195105 | 93 | 128 | 2.0 | 8.0 | 0.00 | 0.00 | 0.00 | 59 | 1011.2 |
| 20260905194536 | 93 | 129 | 3.0 | 9.0 | 0.00 | 0.00 | 0.00 | 58 | 1011.2 |
| 20260905194045 | 93 | 113 | 4.0 | 9.0 | 0.00 | 0.00 | 0.00 | 59 | 1011.2 |
| 20260905193650 | 93 | 106 | 5.0 | 9.0 | 0.00 | 0.00 | 0.00 | 59 | 1011.4 |
| 20260905193057 | 93 | 136 | 6.0 | 9.0 | 0.00 | 0.00 | 0.00 | 60 | 1011.4 |
| 20260905192547 | 93 | 144 | 3.0 | 7.0 | 0.00 | 0.00 | 0.00 | 60 | 1011.5 |
| 20260905192106 | 92 | 280 | 2.0 | 5.0 | 0.00 | 0.00 | 0.00 | 59 | 1011.7 |
| 20260905191539 | 92 | 145 | 0.0 | 5.0 | 0.00 | 0.00 | 0.00 | 63 | 1011.8 |
| 20260905191049 | 92 | 144 | 3.0 | 8.0 | 0.00 | 0.00 | 0.00 | 61 | 1011.9 |
| 20260905190116 | 92 | 108 | 2.0 | 7.0 | 0.00 | 0.00 | 0.00 | 63 | 1012.1 |
| 20260905185628 | 92 | 167 | 3.0 | 7.0 | 0.00 | 0.00 | 0.00 | 63 | 1012.1 |
| 20260905185107 | 91 | 154 | 0.0 | 8.0 | 0.00 | 0.00 | 0.00 | 65 | 1012.2 |
| 20260905184539 | 91 | 151 | 3.0 | 8.0 | 0.00 | 0.00 | 0.00 | 64 | 1012.4 |
| 20260905183540 | 91 | 169 | 4.0 | 9.0 | 0.00 | 0.00 | 0.00 | 64 | 1012.5 |
| 20260905183131 | 91 | 179 | 4.0 | 8.0 | 0.00 | 0.00 | 0.00 | 65 | 1012.5 |
| 20260905182535 | 91 | 183 | 4.0 | 6.0 | 0.00 | 0.00 | 0.00 | 66 | 1012.7 |
| 20260905181557 | 90 | 192 | 3.0 | 9.0 | 0.00 | 0.00 | 0.00 | 69 | 1012.9 |
| 20260905181114 | 90 | 121 | 3.0 | 9.0 | 0.00 | 0.00 | 0.00 | 69 | 1012.9 |
| 20260905180626 | 90 | 132 | 4.0 | 9.0 | 0.00 | 0.00 | 0.00 | 69 | 1013.0 |
| 20260905180046 | 89 | 123 | 3.0 | 11.0 | 0.00 | 0.00 | 0.00 | 71 | 1013.2 |
| 20260905175536 | 89 | 153 | 7.0 | 11.0 | 0.00 | 0.00 | 0.00 | 73 | 1013.2 |
| 20260905174557 | 89 | 146 | 1.0 | 8.0 | 0.00 | 0.00 | 0.00 | 73 | 1013.3 |
| 20260905174109 | 88 | 355 | 4.0 | 9.0 | 0.00 | 0.00 | 0.00 | 75 | 1013.4 |
| 20260905173131 | 87 | 140 | 1.0 | 8.0 | 0.00 | 0.00 | 0.00 | 77 | 1013.6 |
| 20260905172622 | 87 | 66 | 1.0 | 4.0 | 0.00 | 0.00 | 0.00 | 78 | 1013.7 |
| 20260905172124 | 86 | 313 | 2.0 | 6.0 | 0.00 | 0.00 | 0.00 | 78 | 1013.8 |
| 20260905171556 | 86 | 313 | 4.0 | 8.0 | 0.00 | 0.00 | 0.00 | 79 | 1013.8 |
| 20260905171100 | 86 | 327 | 4.0 | 9.0 | 0.00 | 0.00 | 0.00 | 78 | 1013.8 |
| 20260905170607 | 86 | 334 | 6.0 | 9.0 | 0.00 | 0.00 | 0.00 | 78 | 1013.8 |
| 20260905170036 | 86 | 305 | 5.0 | 8.0 | 0.00 | 0.00 | 0.00 | 76 | 1013.8 |
| 20260905165540 | 86 | 322 | 5.0 | 9.0 | 0.00 | 0.00 | 0.00 | 77 | 1013.9 |
| 20260905164610 | 87 | 315 | 5.0 | 8.0 | 0.00 | 0.00 | 0.00 | 76 | 1013.8 |
| 20260905164115 | 88 | 339 | 4.0 | 6.0 | 0.00 | 0.00 | 0.00 | 75 | 1013.8 |
| 20260905163626 | 89 | 294 | 0.0 | 3.0 | 0.00 | 0.00 | 0.00 | 74 | 1013.8 |
| 20260905163051 | 88 | 279 | 0.0 | 3.0 | 0.00 | 0.00 | 0.00 | 74 | 1013.9 |
| 20260905162604 | 88 | 278 | 0.0 | 4.0 | 0.00 | 0.00 | 0.00 | 76 | 1013.9 |
| 20260905162110 | 87 | 270 | 2.0 | 7.0 | 0.00 | 0.00 | 0.00 | 76 | 1013.9 |
| 20260905161536 | 87 | 254 | 1.0 | 7.0 | 0.00 | 0.00 | 0.00 | 75 | 1013.8 |
| 20260905161047 | 87 | 252 | 3.0 | 7.0 | 0.00 | 0.00 | 0.00 | 77 | 1013.8 |
| 20260905160108 | 86 | 243 | 2.0 | 5.0 | 0.00 | 0.00 | 0.00 | 79 | 1013.8 |
| 20260905155619 | 86 | 216 | 1.0 | 5.0 | 0.00 | 0.00 | 0.00 | 79 | 1013.8 |
| 20260905155124 | 86 | 215 | 4.0 | 7.0 | 0.00 | 0.00 | 0.00 | 79 | 1013.8 |
| 20260905154556 | 87 | 224 | 5.0 | 7.0 | 0.00 | 0.00 | 0.00 | 79 | 1013.8 |
| 20260905154108 | 87 | 244 | 4.0 | 8.0 | 0.00 | 0.00 | 0.00 | 79 | 1013.8 |
| 20260905153602 | 86 | 249 | 3.0 | 6.0 | 0.00 | 0.00 | 0.00 | 80 | 1013.9 |
| 20260905153033 | 86 | 255 | 4.0 | 5.0 | 0.00 | 0.00 | 0.00 | 82 | 1013.9 |
| 20260905152539 | 85 | 239 | 3.0 | 5.0 | 0.00 | 0.00 | 0.00 | 82 | 1013.9 |
| 20260905151608 | 85 | 234 | 4.0 | 7.0 | 0.00 | 0.00 | 0.00 | 84 | 1013.9 |
| 20260905151052 | 85 | 223 | 5.0 | 7.0 | 0.00 | 0.00 | 0.00 | 84 | 1013.9 |
| 20260905150645 | 85 | 240 | 4.0 | 7.0 | 0.00 | 0.00 | 0.00 | 85 | 1013.9 |
| 20260905150049 | 84 | 221 | 4.0 | 7.0 | 0.00 | 0.00 | 0.00 | 86 | 1013.9 |
| 20260905145601 | 84 | 240 | 3.0 | 7.0 | 0.00 | 0.00 | 0.00 | 86 | 1013.8 |
| 20260905144604 | 84 | 209 | 1.0 | 5.0 | 0.00 | 0.00 | 0.00 | 88 | 1013.8 |
| 20260905144049 | 84 | 201 | 1.0 | 4.0 | 0.00 | 0.00 | 0.00 | 88 | 1013.8 |
| 20260905143118 | 83 | 197 | 1.0 | 6.0 | 0.00 | 0.00 | 0.00 | 89 | 1013.8 |
| 20260905142602 | 83 | 197 | 3.0 | 6.0 | 0.00 | 0.00 | 0.00 | 89 | 1013.8 |
| 20260905142115 | 82 | 196 | 1.0 | 4.0 | 0.00 | 0.00 | 0.00 | 90 | 1013.8 |
| 20260905141542 | 82 | 195 | 2.0 | 4.0 | 0.00 | 0.00 | 0.00 | 90 | 1013.8 |
| 20260905141050 | 82 | 193 | 3.0 | 4.0 | 0.00 | 0.00 | 0.00 | 90 | 1013.8 |
| 20260905140122 | 82 | 158 | 0.0 | 0.0 | 0.00 | 0.00 | 0.00 | 91 | 1013.9 |
| 20260905135622 | 81 | 155 | 0.0 | 0.0 | 0.00 | 0.00 | 0.00 | 91 | 1013.8 |
| 20260905135033 | 81 | 155 | 0.0 | 0.0 | 0.00 | 0.00 | 0.00 | 91 | 1013.7 |
| 20260905134539 | 81 | 155 | 0.0 | 0.0 | 0.00 | 0.00 | 0.00 | 91 | 1013.6 |
| 20260905134051 | 81 | 154 | 0.0 | 0.0 | 0.00 | 0.00 | 0.00 | 91 | 1013.7 |
| 20260905133113 | 80 | 155 | 0.0 | 2.0 | 0.00 | 0.00 | 0.00 | 92 | 1013.5 |
| 20260905132606 | 80 | 155 | 0.0 | 2.0 | 0.00 | 0.00 | 0.00 | 93 | 1013.5 |
| 20260905132109 | 79 | 155 | 0.0 | 0.0 | 0.00 | 0.00 | 0.00 | 93 | 1013.6 |
| 20260905131538 | 79 | 155 | 0.0 | 0.0 | 0.00 | 0.00 | 0.00 | 93 | 1013.6 |
| 20260905131039 | 79 | 155 | 0.0 | 0.0 | 0.00 | 0.00 | 0.00 | 93 | 1013.4 |
| 20260905130652 | 79 | 155 | 0.0 | 0.0 | 0.00 | 0.00 | 0.00 | 93 | 1013.4 |
| 20260905130058 | 78 | 155 | 0.0 | 0.0 | 0.00 | 0.00 | 0.00 | 93 | 1013.3 |
| 20260905125603 | 78 | 155 | 0.0 | 0.0 | 0.00 | 0.00 | 0.00 | 93 | 1013.3 |
| 20260905124632 | 78 | 155 | 0.0 | 0.0 | 0.00 | 0.00 | 0.00 | 93 | 1013.2 |
| 20260905124137 | 77 | 155 | 0.0 | 0.0 | 0.00 | 0.00 | 0.00 | 93 | 1013.1 |
| 20260905123627 | 77 | 155 | 0.0 | 0.0 | 0.00 | 0.00 | 0.00 | 93 | 1013.0 |
| 20260905123051 | 77 | 155 | 0.0 | 0.0 | 0.00 | 0.00 | 0.00 | 93 | 1012.9 |
| 20260905122602 | 77 | 155 | 0.0 | 0.0 | 0.00 | 0.00 | 0.00 | 92 | 1012.9 |
| 20260905121625 | 77 | 155 | 0.0 | 0.0 | 0.00 | 0.00 | 0.00 | 92 | 1012.9 |
| 20260905121137 | 77 | 155 | 0.0 | 0.0 | 0.00 | 0.00 | 0.00 | 92 | 1012.8 |
| 20260905120627 | 77 | 155 | 0.0 | 0.0 | 0.00 | 0.00 | 0.00 | 92 | 1012.7 |
| 20260905120047 | 77 | 155 | 0.0 | 0.0 | 0.00 | 0.00 | 0.00 | 92 | 1012.6 |
| 20260905115559 | 77 | 155 | 0.0 | 0.0 | 0.00 | 0.00 | 0.00 | 92 | 1012.6 |
| 20260905114622 | 77 | 155 | 0.0 | 0.0 | 0.00 | 0.00 | 0.00 | 92 | 1012.7 |
| 20260905114037 | 77 | 155 | 0.0 | 0.0 | 0.00 | 0.00 | 0.00 | 92 | 1012.6 |
| 20260905113541 | 77 | 155 | 0.0 | 0.0 | 0.00 | 0.00 | 0.00 | 92 | 1012.6 |
| 20260905113153 | 77 | 155 | 0.0 | 0.0 | 0.00 | 0.00 | 0.00 | 92 | 1012.5 |
| 20260905112624 | 77 | 155 | 0.0 | 0.0 | 0.00 | 0.00 | 0.00 | 92 | 1012.4 |
| 20260905111623 | 77 | 155 | 0.0 | 0.0 | 0.00 | 0.00 | 0.00 | 92 | 1012.3 |
| 20260905111128 | 78 | 155 | 0.0 | 0.0 | 0.00 | 0.00 | 0.00 | 92 | 1012.3 |
| 20260905110635 | 78 | 155 | 0.0 | 0.0 | 0.00 | 0.00 | 0.00 | 92 | 1012.3 |
| 20260905110101 | 78 | 155 | 0.0 | 0.0 | 0.00 | 0.00 | 0.00 | 92 | 1012.2 |
| 20260905105544 | 78 | 155 | 0.0 | 0.0 | 0.00 | 0.00 | 0.00 | 92 | 1012.2 |
| 20260905104610 | 78 | 155 | 0.0 | 0.0 | 0.00 | 0.00 | 0.00 | 91 | 1012.2 |
| 20260905104121 | 78 | 155 | 0.0 | 0.0 | 0.00 | 0.00 | 0.00 | 91 | 1012.1 |
| 20260905103626 | 78 | 155 | 0.0 | 0.0 | 0.00 | 0.00 | 0.00 | 91 | 1012.1 |
| 20260905103050 | 78 | 155 | 0.0 | 0.0 | 0.00 | 0.00 | 0.00 | 91 | 1012.2 |
| 20260905102555 | 78 | 155 | 0.0 | 0.0 | 0.00 | 0.00 | 0.00 | 92 | 1012.1 |
| 20260905102103 | 78 | 155 | 0.0 | 0.0 | 0.00 | 0.00 | 0.00 | 92 | 1012.1 |
| 20260905101534 | 78 | 155 | 0.0 | 0.0 | 0.00 | 0.00 | 0.00 | 92 | 1012.1 |
| 20260905101039 | 78 | 155 | 0.0 | 0.0 | 0.00 | 0.00 | 0.00 | 92 | 1012.0 |
| 20260905100112 | 78 | 155 | 0.0 | 0.0 | 0.00 | 0.00 | 0.00 | 91 | 1012.1 |
| 20260905095617 | 78 | 155 | 0.0 | 0.0 | 0.00 | 0.03 | 0.00 | 91 | 1012.1 |
| 20260905095130 | 78 | 155 | 0.0 | 0.0 | 0.00 | 0.03 | 0.00 | 91 | 1012.1 |
| 20260905094550 | 78 | 155 | 0.0 | 0.0 | 0.00 | 0.03 | 0.00 | 91 | 1012.1 |
| 20260905094102 | 78 | 155 | 0.0 | 0.0 | 0.00 | 0.03 | 0.00 | 91 | 1012.1 |
| 20260905093611 | 78 | 155 | 0.0 | 0.0 | 0.00 | 0.03 | 0.00 | 91 | 1012.2 |
| 20260905093033 | 78 | 155 | 0.0 | 0.0 | 0.00 | 0.03 | 0.00 | 91 | 1012.1 |
| 20260905092119 | 78 | 155 | 0.0 | 0.0 | 0.00 | 0.03 | 0.00 | 91 | 1012.2 |
| 20260905091550 | 78 | 155 | 0.0 | 0.0 | 0.00 | 0.03 | 0.00 | 91 | 1012.3 |
| 20260905091055 | 78 | 155 | 0.0 | 0.0 | 0.00 | 0.03 | 0.00 | 91 | 1012.2 |
| 20260905090603 | 78 | 155 | 0.0 | 0.0 | 0.00 | 0.03 | 0.00 | 91 | 1012.2 |
| 20260905090034 | 78 | 155 | 0.0 | 0.0 | 0.00 | 0.03 | 0.00 | 92 | 1012.2 |
| 20260905085539 | 78 | 155 | 0.0 | 0.0 | 0.00 | 0.04 | 0.00 | 92 | 1012.2 |
| 20260905084608 | 78 | 155 | 0.0 | 0.0 | 0.00 | 0.04 | 0.00 | 91 | 1012.0 |
| 20260905084113 | 78 | 155 | 0.0 | 3.0 | 0.00 | 0.04 | 0.00 | 91 | 1012.1 |
| 20260905083626 | 78 | 155 | 1.0 | 5.0 | 0.00 | 0.04 | 0.00 | 91 | 1012.0 |
| 20260905083049 | 78 | 155 | 2.0 | 5.0 | 0.00 | 0.04 | 0.00 | 91 | 1012.1 |
| 20260905082601 | 78 | 156 | 2.0 | 5.0 | 0.00 | 0.04 | 0.00 | 91 | 1012.1 |
| 20260905081038 | 79 | 157 | 4.0 | 6.0 | 0.00 | 0.04 | 0.00 | 90 | 1012.0 |
| 20260905080100 | 79 | 159 | 1.0 | 5.0 | 0.00 | 0.04 | 0.00 | 90 | 1012.0 |
| 20260905075549 | 79 | 161 | 3.0 | 5.0 | 0.00 | 0.04 | 0.00 | 90 | 1012.1 |
| 20260905074615 | 80 | 165 | 4.0 | 8.0 | 0.00 | 0.04 | 0.00 | 90 | 1012.1 |
| 20260905074106 | 80 | 166 | 3.0 | 8.0 | 0.00 | 0.04 | 0.00 | 90 | 1012.1 |
| 20260905073104 | 80 | 175 | 3.0 | 8.0 | 0.00 | 0.04 | 0.00 | 90 | 1012.1 |
| 20260905072615 | 80 | 186 | 3.0 | 8.0 | 0.00 | 0.04 | 0.00 | 89 | 1012.1 |
| 20260905071637 | 80 | 178 | 5.0 | 9.0 | 0.00 | 0.04 | 0.00 | 89 | 1012.2 |
| 20260905071128 | 80 | 188 | 5.0 | 9.0 | 0.00 | 0.04 | 0.00 | 89 | 1012.3 |
| 20260905070632 | 80 | 186 | 5.0 | 8.0 | 0.00 | 0.04 | 0.00 | 89 | 1012.2 |
| 20260905070059 | 80 | 183 | 4.0 | 7.0 | 0.00 | 0.04 | 0.00 | 89 | 1012.3 |
| 20260905065548 | 80 | 178 | 4.0 | 6.0 | 0.00 | 0.04 | 0.00 | 89 | 1012.5 |
| 20260905065058 | 80 | 184 | 3.0 | 6.0 | 0.00 | 0.04 | 0.00 | 89 | 1012.5 |
| 20260905064550 | 80 | 172 | 4.0 | 6.0 | 0.00 | 0.04 | 0.00 | 89 | 1012.5 |
| 20260905064040 | 80 | 175 | 4.0 | 6.0 | 0.00 | 0.04 | 0.00 | 89 | 1012.6 |
| 20260905063534 | 80 | 177 | 3.0 | 5.0 | 0.00 | 0.04 | 0.00 | 88 | 1012.6 |
| 20260905063047 | 80 | 184 | 4.0 | 7.0 | 0.00 | 0.04 | 0.00 | 88 | 1012.7 |
| 20260905062538 | 80 | 174 | 4.0 | 7.0 | 0.00 | 0.04 | 0.00 | 88 | 1012.7 |
| 20260905062048 | 80 | 170 | 4.0 | 8.0 | 0.00 | 0.04 | 0.00 | 88 | 1012.6 |
| 20260905061542 | 80 | 171 | 5.0 | 8.0 | 0.00 | 0.04 | 0.00 | 88 | 1012.6 |
| 20260905061119 | 80 | 163 | 5.0 | 7.0 | 0.00 | 0.04 | 0.00 | 88 | 1012.6 |
| 20260905060540 | 80 | 163 | 3.0 | 8.0 | 0.00 | 0.04 | 0.00 | 88 | 1012.6 |
| 20260905060040 | 80 | 157 | 4.0 | 8.0 | 0.00 | 0.04 | 0.00 | 87 | 1012.6 |
| 20260905055551 | 80 | 167 | 3.0 | 6.0 | 0.00 | 0.04 | 0.00 | 87 | 1012.6 |
| 20260905055034 | 81 | 173 | 4.0 | 6.0 | 0.00 | 0.04 | 0.00 | 87 | 1012.7 |
| 20260905054534 | 81 | 175 | 5.0 | 7.0 | 0.00 | 0.04 | 0.00 | 87 | 1012.6 |
| 20260905054045 | 81 | 173 | 5.0 | 8.0 | 0.00 | 0.04 | 0.00 | 86 | 1012.7 |
| 20260905053555 | 81 | 180 | 6.0 | 10.0 | 0.00 | 0.04 | 0.00 | 86 | 1012.6 |
| 20260905053048 | 81 | 188 | 6.0 | 10.0 | 0.00 | 0.04 | 0.00 | 86 | 1012.6 |
| 20260905052538 | 81 | 163 | 6.0 | 9.0 | 0.00 | 0.04 | 0.00 | 86 | 1012.6 |
| 20260905052049 | 81 | 174 | 6.0 | 7.0 | 0.00 | 0.04 | 0.00 | 86 | 1012.4 |
| 20260905051542 | 81 | 175 | 6.0 | 7.0 | 0.00 | 0.04 | 0.00 | 85 | 1012.5 |
| 20260905051052 | 82 | 165 | 6.0 | 10.0 | 0.00 | 0.04 | 0.00 | 85 | 1012.6 |
| 20260905050542 | 82 | 171 | 7.0 | 11.0 | 0.00 | 0.04 | 0.00 | 85 | 1012.7 |
| 20260905050122 | 82 | 169 | 7.0 | 9.0 | 0.00 | 0.04 | 0.00 | 85 | 1012.6 |
| 20260905045626 | 82 | 161 | 7.0 | 9.0 | 0.00 | 0.04 | 0.04 | 85 | 1012.6 |
| 20260905044627 | 82 | 151 | 6.0 | 8.0 | 0.00 | 0.04 | 0.04 | 85 | 1012.7 |
| 20260905044043 | 81 | 182 | 6.0 | 7.0 | 0.00 | 0.04 | 0.04 | 85 | 1012.8 |
| 20260905043105 | 81 | 184 | 3.0 | 7.0 | 0.00 | 0.04 | 0.04 | 86 | 1012.8 |
| 20260905042617 | 81 | 160 | 4.0 | 8.0 | 0.00 | 0.04 | 0.04 | 86 | 1012.8 |
| 20260905042121 | 81 | 153 | 5.0 | 8.0 | 0.00 | 0.04 | 0.04 | 86 | 1012.8 |
| 20260905041548 | 81 | 146 | 5.0 | 8.0 | 0.00 | 0.04 | 0.04 | 85 | 1012.8 |
| 20260905041100 | 81 | 148 | 5.0 | 8.0 | 0.00 | 0.04 | 0.04 | 85 | 1012.8 |
| 20260905040105 | 81 | 146 | 4.0 | 8.0 | 0.00 | 0.04 | 0.04 | 85 | 1012.7 |
| 20260905035610 | 81 | 153 | 5.0 | 8.0 | 0.00 | 0.04 | 0.04 | 85 | 1012.8 |
| 20260905035121 | 82 | 151 | 5.0 | 8.0 | 0.00 | 0.04 | 0.04 | 84 | 1012.9 |
| 20260905034542 | 82 | 148 | 5.0 | 8.0 | 0.00 | 0.04 | 0.04 | 84 | 1012.9 |
| 20260905034053 | 82 | 144 | 4.0 | 7.0 | 0.00 | 0.04 | 0.04 | 84 | 1012.9 |
| 20260905033603 | 82 | 142 | 4.0 | 7.0 | 0.00 | 0.04 | 0.04 | 83 | 1012.9 |
| 20260905033148 | 82 | 138 | 3.0 | 7.0 | 0.00 | 0.04 | 0.04 | 83 | 1012.9 |
| 20260905032537 | 82 | 142 | 2.0 | 5.0 | 0.00 | 0.04 | 0.04 | 82 | 1012.9 |
| 20260905032121 | 82 | 144 | 2.0 | 5.0 | 0.00 | 0.04 | 0.04 | 82 | 1012.8 |
| 20260905031549 | 82 | 150 | 3.0 | 6.0 | 0.00 | 0.04 | 0.04 | 82 | 1012.8 |
| 20260905031101 | 83 | 150 | 3.0 | 5.0 | 0.00 | 0.04 | 0.04 | 82 | 1012.8 |
| 20260905030605 | 83 | 148 | 4.0 | 8.0 | 0.00 | 0.04 | 0.04 | 81 | 1012.7 |
| 20260905030038 | 83 | 143 | 5.0 | 8.0 | 0.00 | 0.04 | 0.04 | 81 | 1012.7 |
| 20260905025550 | 83 | 138 | 4.0 | 7.0 | 0.00 | 0.04 | 0.04 | 80 | 1012.7 |
| 20260905024612 | 83 | 128 | 2.0 | 6.0 | 0.00 | 0.04 | 0.04 | 79 | 1012.6 |
| 20260905024117 | 83 | 128 | 0.0 | 5.0 | 0.00 | 0.04 | 0.04 | 79 | 1012.5 |
| 20260905023629 | 84 | 129 | 2.0 | 5.0 | 0.00 | 0.04 | 0.04 | 79 | 1012.4 |
| 20260905023055 | 84 | 130 | 0.0 | 1.0 | 0.00 | 0.04 | 0.04 | 79 | 1012.4 |
| 20260905022600 | 84 | 130 | 0.0 | 0.0 | 0.00 | 0.04 | 0.04 | 79 | 1012.3 |
| 20260905022111 | 84 | 130 | 0.0 | 2.0 | 0.00 | 0.04 | 0.04 | 79 | 1012.3 |
| 20260905021542 | 84 | 130 | 0.0 | 1.0 | 0.00 | 0.04 | 0.04 | 79 | 1012.2 |
| 20260905021046 | 84 | 130 | 0.0 | 1.0 | 0.00 | 0.04 | 0.04 | 80 | 1012.3 |
| 20260905020108 | 84 | 130 | 0.0 | 2.0 | 0.00 | 0.04 | 0.04 | 79 | 1012.1 |
| 20260905015619 | 84 | 130 | 0.0 | 3.0 | 0.00 | 0.04 | 0.04 | 79 | 1012.1 |
| 20260905015131 | 84 | 130 | 1.0 | 3.0 | 0.00 | 0.04 | 0.04 | 79 | 1012.1 |
| 20260905014552 | 84 | 129 | 0.0 | 1.0 | 0.00 | 0.04 | 0.04 | 79 | 1011.8 |
| 20260905014042 | 85 | 132 | 0.0 | 1.0 | 0.00 | 0.04 | 0.04 | 79 | 1011.9 |
| 20260905013109 | 85 | 132 | 0.0 | 1.0 | 0.00 | 0.04 | 0.04 | 78 | 1011.8 |
| 20260905012620 | 85 | 132 | 0.0 | 5.0 | 0.00 | 0.04 | 0.04 | 78 | 1011.9 |
| 20260905011619 | 85 | 136 | 0.0 | 1.0 | 0.00 | 0.04 | 0.04 | 77 | 1011.8 |
| 20260905011110 | 86 | 138 | 0.0 | 4.0 | 0.00 | 0.04 | 0.04 | 77 | 1011.7 |
| 20260905010131 | 86 | 140 | 2.0 | 7.0 | 0.00 | 0.04 | 0.04 | 76 | 1011.7 |
| 20260905005636 | 86 | 117 | 1.0 | 6.0 | 0.00 | 0.04 | 0.04 | 76 | 1011.4 |
| 20260905005126 | 87 | 113 | 2.0 | 6.0 | 0.00 | 0.04 | 0.04 | 75 | 1011.5 |
| 20260905004552 | 87 | 113 | 1.0 | 4.0 | 0.00 | 0.04 | 0.04 | 75 | 1011.5 |
| 20260905004057 | 87 | 107 | 2.0 | 6.0 | 0.00 | 0.04 | 0.04 | 74 | 1011.4 |
| 20260905003100 | 88 | 120 | 3.0 | 9.0 | 0.00 | 0.04 | 0.04 | 73 | 1011.3 |
| 20260905002551 | 88 | 125 | 5.0 | 9.0 | 0.00 | 0.04 | 0.04 | 73 | 1011.3 |
| 20260905001614 | 88 | 124 | 3.0 | 9.0 | 0.00 | 0.04 | 0.04 | 72 | 1011.2 |
| 20260905001105 | 89 | 87 | 3.0 | 8.0 | 0.00 | 0.04 | 0.04 | 72 | 1011.3 |
| 20260905000127 | 89 | 124 | 3.0 | 9.0 | 0.00 | 0.04 | 0.04 | 71 | 1011.3 |
| 20260904235538 | 89 | 105 | 3.0 | 9.0 | 0.00 | 0.04 | 0.04 | 70 | 1011.2 |
| 20260904234605 | 90 | 126 | 4.0 | 10.0 | 0.00 | 0.04 | 0.04 | 70 | 1011.3 |
| 20260904234116 | 90 | 83 | 5.0 | 10.0 | 0.00 | 0.04 | 0.04 | 69 | 1011.2 |
| 20260904233611 | 90 | 108 | 5.0 | 12.0 | 0.00 | 0.04 | 0.04 | 69 | 1011.1 |
| 20260904233044 | 90 | 82 | 8.0 | 12.0 | 0.00 | 0.04 | 0.04 | 68 | 1011.2 |
| 20260904232549 | 90 | 82 | 6.0 | 11.0 | 0.00 | 0.04 | 0.04 | 68 | 1011.3 |
| 20260904231619 | 90 | 78 | 7.0 | 14.0 | 0.00 | 0.04 | 0.04 | 68 | 1011.3 |
| 20260904231042 | 91 | 88 | 8.0 | 13.0 | 0.00 | 0.04 | 0.04 | 67 | 1011.2 |